| time (UTC) | temp F | wind direction | speed MPH | gust MPH | rain 1hr in | rain 24hr in | rain mn in | humidity % | barometer mb |
| 20260502231519 | 47 | 337 | 1.0 | 5.0 | 0.00 | 0.16 | 0.02 | 49 | 1012.0 |
| 20260502230017 | 47 | 315 | 1.0 | 4.0 | 0.00 | 0.16 | 0.02 | 50 | 1012.0 |
| 20260502224511 | 47 | 26 | 1.0 | 3.0 | 0.00 | 0.16 | 0.02 | 50 | 1012.0 |
| 20260502223006 | 47 | 346 | 2.0 | 6.0 | 0.00 | 0.16 | 0.02 | 51 | 1012.0 |
| 20260502221501 | 47 | 360 | 4.0 | 10.0 | 0.00 | 0.16 | 0.02 | 51 | 1012.0 |
| 20260502220104 | 47 | 340 | 4.0 | 10.0 | 0.00 | 0.16 | 0.02 | 50 | 1012.0 |
| 20260502214553 | 48 | 317 | 3.0 | 11.0 | 0.00 | 0.16 | 0.02 | 49 | 1011.9 |
| 20260502213055 | 48 | 296 | 4.0 | 7.0 | 0.00 | 0.16 | 0.02 | 48 | 1011.8 |
| 20260502211558 | 48 | 322 | 3.0 | 10.0 | 0.00 | 0.16 | 0.02 | 48 | 1011.7 |
| 20260502210041 | 48 | 314 | 2.0 | 9.0 | 0.00 | 0.16 | 0.02 | 47 | 1011.7 |
| 20260502204536 | 49 | 348 | 5.0 | 12.0 | 0.00 | 0.16 | 0.02 | 46 | 1011.7 |
| 20260502203031 | 49 | 333 | 5.0 | 11.0 | 0.00 | 0.16 | 0.02 | 44 | 1011.7 |
| 20260502201526 | 50 | 270 | 4.0 | 8.0 | 0.00 | 0.16 | 0.02 | 41 | 1011.7 |
| 20260502200025 | 50 | 271 | 3.0 | 9.0 | 0.00 | 0.16 | 0.02 | 41 | 1011.8 |
| 20260502194518 | 50 | 294 | 5.0 | 11.0 | 0.00 | 0.16 | 0.02 | 40 | 1012.0 |
| 20260502193014 | 50 | 245 | 4.0 | 8.0 | 0.00 | 0.16 | 0.02 | 40 | 1012.2 |
| 20260502191509 | 51 | 294 | 4.0 | 10.0 | 0.00 | 0.16 | 0.02 | 40 | 1012.4 |
| 20260502190008 | 51 | 265 | 4.0 | 8.0 | 0.00 | 0.16 | 0.02 | 40 | 1012.4 |
| 20260502184506 | 51 | 349 | 2.0 | 10.0 | 0.00 | 0.16 | 0.02 | 39 | 1012.5 |
| 20260502183109 | 51 | 304 | 3.0 | 10.0 | 0.00 | 0.16 | 0.02 | 40 | 1012.6 |
| 20260502181555 | 51 | 351 | 3.0 | 10.0 | 0.00 | 0.16 | 0.02 | 40 | 1012.6 |
| 20260502163037 | 54 | 323 | 5.0 | 12.0 | 0.00 | 0.16 | 0.02 | 36 | 1012.7 |
| 20260502161524 | 53 | 28 | 7.0 | 12.0 | 0.00 | 0.16 | 0.02 | 37 | 1012.7 |
| 20260502151502 | 51 | 281 | 6.0 | 15.0 | 0.00 | 0.16 | 0.02 | 42 | 1012.9 |
| 20260502123017 | 42 | 319 | 4.0 | 10.0 | 0.00 | 0.15 | 0.01 | 1 | 1013.4 |
| 20260502121513 | 42 | 300 | 4.0 | 10.0 | 0.00 | 0.15 | 0.01 | 1 | 1013.2 |
| 20260502114611 | 42 | 281 | 4.0 | 7.0 | 0.00 | 0.15 | 0.01 | 1 | 1013.2 |
| 20260502113056 | 42 | 333 | 5.0 | 9.0 | 0.00 | 0.15 | 0.01 | 1 | 1013.3 |
| 20260502111555 | 42 | 306 | 4.0 | 7.0 | 0.00 | 0.15 | 0.01 | 1 | 1013.2 |
| 20260502110047 | 41 | 305 | 2.0 | 5.0 | 0.00 | 0.15 | 0.01 | 1 | 1012.9 |
| 20260502104549 | 41 | 311 | 1.0 | 4.0 | 0.00 | 0.15 | 0.01 | 1 | 1012.9 |
| 20260502103039 | 41 | 309 | 2.0 | 6.0 | 0.00 | 0.15 | 0.01 | 1 | 1012.8 |
| 20260502101552 | 41 | 301 | 1.0 | 3.0 | 0.00 | 0.15 | 0.01 | 1 | 1012.8 |
| 20260502091517 | 41 | 331 | 1.0 | 5.0 | 0.00 | 0.15 | 0.01 | 1 | 1012.2 |
| 20260502080108 | 42 | 279 | 2.0 | 4.0 | 0.00 | 0.15 | 0.01 | 1 | 1011.9 |
| 20260502070053 | 42 | 288 | 1.0 | 4.0 | 0.00 | 0.15 | 0.01 | 1 | 1011.8 |
| 20260502064534 | 42 | 288 | 0.0 | 4.0 | 0.00 | 0.15 | 0.01 | 1 | 1011.7 |
| 20260502063036 | 42 | 288 | 0.0 | 4.0 | 0.00 | 0.15 | 0.01 | 1 | 1011.5 |
| 20260502061525 | 43 | 317 | 2.0 | 3.0 | 0.00 | 0.15 | 0.01 | 1 | 1011.8 |
| 20260502060021 | 43 | 318 | 1.0 | 5.0 | 0.00 | 0.15 | 0.01 | 1 | 1011.7 |
| 20260502054517 | 43 | 329 | 3.0 | 10.0 | 0.00 | 0.15 | 0.01 | 1 | 1011.8 |
| 20260502053011 | 43 | 283 | 3.0 | 14.0 | 0.01 | 0.15 | 0.01 | 1 | 1011.6 |
| 20260502051508 | 44 | 336 | 5.0 | 10.0 | 0.01 | 0.15 | 0.01 | 1 | 1011.3 |
| 20260502050007 | 44 | 267 | 1.0 | 6.0 | 0.01 | 0.15 | 0.01 | 1 | 1011.4 |
| 20260502044559 | 45 | 252 | 2.0 | 7.0 | 0.01 | 0.15 | 0.01 | 1 | 1011.6 |
| 20260502043102 | 45 | 260 | 3.0 | 9.0 | 0.00 | 0.14 | 0.00 | 1 | 1011.7 |
| 20260502041550 | 45 | 267 | 2.0 | 6.0 | 0.01 | 0.14 | 0.14 | 1 | 1011.5 |
| 20260502040054 | 45 | 288 | 1.0 | 5.0 | 0.02 | 0.14 | 0.14 | 1 | 1011.4 |
| 20260502034541 | 46 | 283 | 1.0 | 4.0 | 0.02 | 0.14 | 0.14 | 1 | 1011.4 |
| 20260502033137 | 46 | 302 | 3.0 | 8.0 | 0.02 | 0.14 | 0.14 | 1 | 1011.2 |
| 20260502031534 | 46 | 246 | 1.0 | 2.0 | 0.01 | 0.13 | 0.13 | 1 | 1011.3 |
| 20260502030028 | 46 | 245 | 0.0 | 1.0 | 0.01 | 0.12 | 0.12 | 1 | 1011.3 |
| 20260502024523 | 46 | 245 | 0.0 | 2.0 | 0.03 | 0.12 | 0.12 | 1 | 1011.3 |
| 20260502023019 | 46 | 245 | 0.0 | 2.0 | 0.04 | 0.12 | 0.12 | 1 | 1011.2 |
| 20260502021515 | 46 | 245 | 0.0 | 1.0 | 0.04 | 0.12 | 0.12 | 1 | 1011.4 |
| 20260502020010 | 46 | 245 | 0.0 | 1.0 | 0.03 | 0.11 | 0.11 | 1 | 1011.4 |
| 20260502014507 | 46 | 245 | 0.0 | 1.0 | 0.02 | 0.09 | 0.09 | 1 | 1011.2 |
| 20260502013003 | 46 | 245 | 0.0 | 1.0 | 0.01 | 0.08 | 0.08 | 1 | 1011.2 |
| 20260502011608 | 46 | 245 | 0.0 | 1.0 | 0.02 | 0.08 | 0.08 | 1 | 1011.2 |
| 20260502010053 | 46 | 245 | 0.0 | 1.0 | 0.02 | 0.08 | 0.08 | 1 | 1011.1 |
| 20260502004605 | 46 | 245 | 0.0 | 1.0 | 0.02 | 0.07 | 0.07 | 1 | 1011.2 |
| 20260502003043 | 46 | 245 | 0.0 | 1.0 | 0.04 | 0.07 | 0.07 | 1 | 1011.1 |
| 20260502001557 | 46 | 245 | 0.0 | 1.0 | 0.04 | 0.06 | 0.06 | 1 | 1010.9 |
| 20260502000037 | 47 | 245 | 0.0 | 2.0 | 0.06 | 0.06 | 0.06 | 1 | 1011.0 |
| 20260501234531 | 48 | 245 | 0.0 | 2.0 | 0.04 | 0.04 | 0.04 | 1 | 1010.8 |
| 20260501233030 | 49 | 245 | 0.0 | 2.0 | 0.03 | 0.03 | 0.03 | 1 | 1010.8 |